Taba International, Egypt

1:21 AM EET on November 21, 2017 (GMT +0200)
Taba International

Weather History for HETB - October, 2012

Change the Weather History Date:

Tuesday, October 9, 2012

  Actual Average Record
Temperature  
Mean Temperature 72 °F -  
Max Temperature 84 °F - - ()
Min Temperature 60 °F - - ()
Cooling Degree Days 7    
Growing Degree Days 22 (Base 50)    
Moisture  
Dew Point 48 °F    
Average Humidity 50    
Maximum Humidity 88    
Minimum Humidity 20    
Precipitation  
Precipitation 0.00 in - - ()
Sea Level Pressure  
Sea Level Pressure 30.00 in    
Wind  
Wind Speed 1 mph ()    
Max Wind Speed 14 mph    
Max Gust Speed -    
T = Trace of Precipitation, MM = Missing Value Source: Averaged Metar Reports

Daily Weather History Graph

Daily Weather History Graph

Search for Another Location

Airport or City:

Trip Planner

Search our weather history database for the weather conditions in past years. The results will help you decide how hot, cold, wet, or windy it might be!

Date:

Astronomy

Oct. 09, 2012 Rise Set
Actual Time 5:38 AM EET 5:16 PM EET
Civil Twilight 5:14 AM EET 5:40 PM EET
Nautical Twilight 4:47 AM EET 6:08 PM EET
Astronomical Twilight 4:19 AM EET 6:35 PM EET
Moon No Moon Rise 1:06 PM EET (10/9)
Length of Visible Light 12h 25m
Length of Day
11h 38m
Last Quarter, 39% of the Moon is Illuminated
Oct 9
Last Quarter
Oct 15
New
Oct 22
First Quarter
Oct 29
Full
Nov 7
Last Quarter

Hourly Weather History & Observations

Time (EET) Temp. Dew Point Humidity Pressure Visibility Wind Dir Wind Speed Gust Speed Precip Events Conditions
12:00 AM 64.4 °F 55.4 °F 73% 30.04 in - Calm Calm - N/A   Clear
1:00 AM 62.6 °F 55.4 °F 77% 30.04 in - Calm Calm - N/A   Clear
2:00 AM 62.6 °F 55.4 °F 77% 30.01 in - Calm Calm - N/A   Clear
3:00 AM 60.8 °F 57.2 °F 88% 30.01 in - Calm Calm - N/A   Clear
4:00 AM 60.8 °F 55.4 °F 82% 30.01 in - Calm Calm - N/A   Clear
5:00 AM 60.8 °F 55.4 °F 82% 30.01 in - Calm Calm - N/A   Clear
6:00 AM 60.8 °F 57.2 °F 88% 30.04 in - Calm Calm - N/A   Clear
7:00 AM 64.4 °F 57.2 °F 77% 30.04 in - Calm Calm - N/A   Clear
8:00 AM 69.8 °F 51.8 °F 53% 30.04 in - Calm Calm - N/A   Clear
9:00 AM 71.6 °F 50.0 °F 46% 30.04 in - Calm Calm - N/A   Clear
10:00 AM 75.2 °F 46.4 °F 36% 30.04 in - Calm Calm - N/A   Clear
11:00 AM 77.0 °F 46.4 °F 34% 30.01 in - Calm Calm - N/A   Clear
12:00 PM 80.6 °F 41.0 °F 24% 29.95 in - Calm Calm - N/A   Clear
1:00 PM 80.6 °F 39.2 °F 23% 29.95 in - Calm Calm - N/A   Clear
2:00 PM 84.2 °F 41.0 °F 22% 29.95 in - Calm Calm - N/A   Clear
3:00 PM 84.2 °F 39.2 °F 20% 29.95 in - Calm Calm - N/A   Clear
4:00 PM 82.4 °F 42.8 °F 25% 29.95 in - WNW 6.9 mph - N/A   Clear
5:00 PM 80.6 °F 42.8 °F 26% 29.95 in - NW 8.1 mph - N/A   Clear
6:00 PM 77.0 °F 44.6 °F 32% 29.95 in - NW 11.5 mph - N/A   Clear
7:00 PM 73.4 °F 44.6 °F 36% 29.98 in - NW 13.8 mph - N/A   Clear
8:00 PM 71.6 °F 44.6 °F 38% 29.98 in - NW 10.4 mph - N/A   Clear
9:00 PM 69.8 °F 44.6 °F 40% 30.01 in - WNW 10.4 mph - N/A   Clear
10:00 PM 68.0 °F 48.2 °F 49% 30.01 in - WNW 2.3 mph - N/A   Clear
11:00 PM 66.2 °F 48.2 °F 52% 29.98 in - Calm Calm - N/A   Clear